Flag for Barbados Weather past 2 weeks in Bridgetown, Barbados

Now
81 °F

Partly cloudy.


Feels Like: 85 °F
Forecast: 79 / 85 °F
Wind: 14 mph from East

Location: Grantley Adams


UV Index: 10 (Very high)

Visibility: N/A


Pressure: 29.98 "Hg

Humidity: 74%

Dew point: 72 °F

Location of BridgetownLocation

Historic Weather in Bridgetown

°F

Bridgetown temperature yesterday

Maximum temperature yesterday: 86 °F (at 1:00 PM)
Minimum temperature yesterday: 77 °F (at 3:00 AM)
Average temperature yesterday: 81 °F

Past Weeks' High & Low Weather Summary

 TemperatureHumidityPressure
High86 °F (Apr 20, 12:00 PM)100% (Apr 17, 4:00 PM)30.09 "Hg (Apr 17, 4:00 PM)
Low73 °F (Apr 12, 4:00 AM)58% (Apr 10, 1:00 PM)29.86 "Hg (Apr 14, 4:00 PM)
Average80 °F76%29.96 "Hg
* Reported Apr 9 9:00 PM — Apr 24 9:00 PM, Bridgetown, Weather by CustomWeather, © 2014

Note: Actual official high and low records may vary slightly from our data, if they occured in-between our weather recording intervals... More about our weather records

Advertising

Historic Weather Conditions — Data for Previous 24 hours

 ConditionsComfort  
Time TempWeatherWind HumidityBarometerVisibility
9:00 PM
Apr 24
81 °FPartly cloudy.14 mph74%29.98 "HgN/A
8:00 PM79 °FPartly cloudy.14 mph84%29.98 "HgN/A
7:00 PM81 °FPassing clouds.14 mph79%29.95 "HgN/A
6:00 PM81 °FPartly sunny.14 mph79%29.95 "HgN/A
5:00 PM82 °FBroken clouds.13 mph74%29.92 "HgN/A
4:00 PM82 °FPartly sunny.14 mph74%29.92 "HgN/A
3:00 PM86 °FPartly sunny.14 mph70%29.92 "HgN/A
2:00 PM86 °FPartly sunny.16 mph70%29.95 "HgN/A
1:00 PM86 °FBroken clouds.16 mph70%29.98 "HgN/A
12:00 PM86 °FBroken clouds.15 mph70%30.01 "HgN/A
11:00 AM86 °FScattered clouds.16 mph70%30.01 "HgN/A
10:00 AM84 °FPartly sunny.15 mph74%30.01 "HgN/A
9:00 AM84 °FBroken clouds.15 mph74%30.04 "HgN/A
8:00 AM82 °FPartly sunny.18 mph79%30.01 "HgN/A
7:00 AM81 °FPartly sunny.12 mph84%29.98 "Hg5 mi
6:00 AM79 °FPartly sunny.12 mph84%29.95 "HgN/A
5:00 AM79 °FPassing clouds.10 mph84%29.95 "HgN/A
4:00 AM81 °FPassing clouds.13 mph79%29.92 "HgN/A
3:00 AM79 °FPassing clouds.13 mph84%29.92 "HgN/A
2:00 AM79 °FPassing clouds.13 mph79%29.95 "Hg6 mi
1:00 AM79 °FPassing clouds.12 mph79%29.95 "Hg6 mi
12:00 AM81 °FPassing clouds.14 mph74%29.98 "Hg6 mi
11:00 PM
Apr 23
81 °FPassing clouds.13 mph74%29.98 "Hg6 mi
10:00 PM79 °FPassing clouds.13 mph79%29.98 "Hg6 mi
Weather by CustomWeather, © 2014

See weather overview